Location: ?astrovice
(49.6513°N, 14.9287°E)
Time: 04:22:08
(UTC+00:00)

Lacrosse 5 rocket - Pass Details

Date: 09 April 2020
Orbit: 458 x 638 km, 57.0° (Epoch: 29 May)

Event Time Altitude Azimuth Distance (km) Brightness Sun altitude
Exits shadow 23:54:10 15° 54° (NE) 1,451 4.0 -31.2°
Drops below altitude 10° 23:54:51 10° 55° (NE) 1,724 4.4 -31.1°
Sets 23:57:06 0° 57° (ENE) 2,644 5.5 -31.0°
